STARLINK-31748 (59612 NORAD) Tracking and Keplerian Element Data

This shows tracking and keplerian element data for the satellite.

Feedback or suggestion? Click here.




ElementValue
Catalog59612
NameSTARLINK-31748
Epoch Orbit745
Epoch Day160.1715305
Epoch Year2024
RAAN87.9082
Inclination43.0003
Eccentricity0.0001455
Argument of Perigee278.0062
Mean Anonmoly82.0629
Mean Motion15.40737374
Decay Rate0.00024154
L11 59612U 24080M 24160.17153050 .00024154 00000+0 58292-3 0 9996
L22 59612 43.0003 87.9082 0001455 278.0062 82.0629 15.40737374 7453



Live tracking and technical data element details for STARLINK-31748 (NORAD 59612). STARLINK-31748 can be tracked NOW for your location showing map with azimuth and elevation plus other details from your city location.







IsCatalogInMostPopularTable: catalog: 59612, numindb: 13
Update: records affected: 1



GetName: 59612 STARLINK-31748

Hit Count: updated at: Fri, 14 Jun 2024 19:47:00 GMT